Overview Statistics Trail Chart Weather Telemetry Raw packets
 

This is the latest recevied weather packets stored in our database for station/object 4S6DRJ-13. If no packets are shown the sender has not sent any weather packets the latest 10 day(s).

<< 334 335 336 337 338 339 340 >>
Time Temp. Humidity Pressure Rain* Wind** Luminosity Snow
1787968150 27.78° C 86% 1009.9 hPa 0.76 mm 1.79 m/s, 344° 134 W/m² -
1787968089 27.78° C 86% 1009.9 hPa 0.76 mm 2.24 m/s, 261° 113 W/m² -
1787968028 27.78° C 86% 1009.8 hPa 0.76 mm 2.24 m/s, 155° 142 W/m² -
1787967967 27.78° C 87% 1009.6 hPa 0.76 mm 0 m/s 149 W/m² -
1787967906 27.78° C 87% 1009.9 hPa 0.76 mm 1.34 m/s, 311° 133 W/m² -
1787967846 27.78° C 87% 1009.9 hPa 0.76 mm 2.24 m/s, 275° 140 W/m² -
1787967784 27.78° C 88% 1009.9 hPa 0.76 mm 0 m/s 148 W/m² -
1787967723 27.78° C 88% 1009.7 hPa 0.76 mm 0.45 m/s, 226° 163 W/m² -
1787967662 27.78° C 88% 1009.7 hPa 0.76 mm 0 m/s 137 W/m² -
1787967601 27.78° C 88% 1009.9 hPa 0.76 mm 0.89 m/s, 232° 181 W/m² -
1787967540 27.78° C 88% 1009.7 hPa 0.76 mm 0 m/s 185 W/m² -
1787967479 27.22° C 88% 1009.8 hPa 0.76 mm 0 m/s 182 W/m² -
1787967418 27.22° C 88% 1010 hPa 0.76 mm 0.45 m/s, 253° 139 W/m² -
1787967357 27.22° C 88% 1009.8 hPa 0.76 mm 0.89 m/s, 222° 132 W/m² -
1787967296 27.22° C 88% 1009.6 hPa 0.76 mm 0.89 m/s, 237° 103 W/m² -
1787967236 27.22° C 88% 1009.9 hPa 0.76 mm 0.89 m/s, 225° 93 W/m² -
1787967174 27.22° C 88% 1009.8 hPa 0.76 mm 0.89 m/s, 233° 104 W/m² -
1787967113 27.22° C 88% 1009.7 hPa 0.76 mm 0.89 m/s, 221° 77 W/m² -
1787967052 27.22° C 88% 1009.7 hPa 0.76 mm 0.45 m/s, 281° 71 W/m² -
1787966991 27.22° C 88% 1009.8 hPa 0.76 mm 0.45 m/s, 227° 73 W/m² -
1787966930 27.22° C 88% 1009.8 hPa 0.76 mm 0.89 m/s, 232° 69 W/m² -
1787966869 27.22° C 88% 1009.7 hPa 0.76 mm 0.89 m/s, 341° 65 W/m² -
1787966808 27.22° C 88% 1009.6 hPa 0.76 mm 1.34 m/s, 266° 62 W/m² -
1787966747 27.22° C 88% 1009.6 hPa 0.76 mm 0.89 m/s, 239° 59 W/m² -
1787966686 27.22° C 88% 1009.6 hPa 0.76 mm 0.45 m/s, 232° 55 W/m² -

* Rain latest hour (hover to see other rain measurements)
** Current wind speed in m/s (hover to see current wind gust speed)